QTR5M OTHH-YMML

Flight info

Callsign QTR5M
Flight time N/A
Altitude 33000
Route BUNDU B415 SIXIV N318 TOLDA P570 EMURU M300 VASTU P895 BIKOK M641 DOGAR DCT DAOVO/N0503F350 DCT PIBED M641 CC DCT 17S102E 20S106E 22S109E/N0493F370 24S112E DCT CAR DCT IGASO DCT LEO DCT 32S128E DCT KAMBI N640 AD V255 BENDO Y12 ARBEY
Aircraft A35K/H-SDE2E3GHIJ3J4J5LM1ORWXY/LB1D1

Departure

Time N/A
Airport Hamad International Airport (OTHH)

Arrival

Time 2026-05-04 08:41
Airport Melbourne Airport (YMML)
Time Latitude Longitude Altitude Speed Heading
2026-05-04 06:58 -32.75169 130.38217 37238 ft 501 kts 113°
2026-05-04 06:58 -32.77533 130.46012 37238 ft 501 kts 113°
2026-05-04 06:59 -32.79889 130.53805 37236 ft 501 kts 113°
2026-05-04 06:59 -32.82243 130.61611 37235 ft 501 kts 113°
2026-05-04 07:01 -32.91595 130.92826 37231 ft 501 kts 112°
2026-05-04 07:02 -32.93922 131.00641 37227 ft 501 kts 112°
2026-05-04 07:02 -32.96247 131.08473 37227 ft 501 kts 112°
2026-05-04 07:03 -32.98566 131.16302 37228 ft 502 kts 112°
2026-05-04 07:03 -33.00888 131.24163 37224 ft 503 kts 112°
2026-05-04 07:04 -33.03202 131.32021 37225 ft 504 kts 112°
2026-05-04 07:04 -33.05516 131.39896 37226 ft 504 kts 112°
2026-05-04 07:05 -33.07824 131.47773 37219 ft 503 kts 112°
2026-05-04 07:05 -33.10115 131.55614 37217 ft 503 kts 112°
2026-05-04 07:06 -33.13583 131.67518 37213 ft 505 kts 111°
2026-05-04 07:07 -33.15880 131.75435 37211 ft 504 kts 111°
2026-05-04 07:09 -33.25017 132.07128 37206 ft 506 kts 111°
2026-05-04 07:09 -33.27291 132.15073 37203 ft 506 kts 111°
2026-05-04 07:10 -33.29566 132.23038 37208 ft 506 kts 111°
2026-05-04 07:12 -33.38605 132.54912 37197 ft 507 kts 110°
2026-05-04 07:12 -33.40856 132.62908 37193 ft 507 kts 110°
2026-05-04 07:13 -33.43109 132.70930 37194 ft 508 kts 110°
2026-05-04 07:13 -33.45355 132.78951 37203 ft 508 kts 110°
2026-05-04 07:14 -33.50937 132.98984 37195 ft 507 kts 110°
2026-05-04 07:15 -33.53147 133.06953 37198 ft 508 kts 110°
2026-05-04 07:15 -33.55367 133.14983 37194 ft 507 kts 110°
2026-05-04 07:16 -33.57582 133.23014 37173 ft 507 kts 110°
2026-05-04 07:16 -33.59795 133.31062 37190 ft 509 kts 110°
2026-05-04 07:17 -33.61633 133.37769 37177 ft 508 kts 110°
2026-05-04 07:17 -33.63837 133.45827 37197 ft 508 kts 110°
2026-05-04 07:18 -33.66038 133.53899 37197 ft 509 kts 110°
2026-05-04 07:18 -33.68238 133.61989 37184 ft 509 kts 110°
2026-05-04 07:19 -33.70420 133.70039 37184 ft 510 kts 110°
2026-05-04 07:19 -33.72613 133.78150 37181 ft 510 kts 110°
2026-05-04 07:20 -33.74798 133.86257 37181 ft 510 kts 109°
2026-05-04 07:20 -33.76982 133.94384 37176 ft 511 kts 109°
2026-05-04 07:22 -33.85672 134.26960 37172 ft 512 kts 109°
2026-05-04 07:23 -33.87839 134.35143 37173 ft 513 kts 109°
2026-05-04 07:23 -33.90000 134.43332 37174 ft 513 kts 109°
2026-05-04 07:24 -33.92144 134.51475 37170 ft 514 kts 109°
2026-05-04 07:24 -33.94298 134.59685 37171 ft 514 kts 109°
2026-05-04 07:26 -34.02858 134.92561 37174 ft 515 kts 109°
2026-05-04 07:27 -34.04987 135.00800 37167 ft 514 kts 109°
2026-05-04 07:27 -34.07111 135.09042 37161 ft 516 kts 109°
2026-05-04 07:28 -34.09238 135.17327 37162 ft 516 kts 109°
2026-05-04 07:28 -34.11328 135.25488 37159 ft 516 kts 109°
2026-05-04 07:29 -34.12797 135.31242 37149 ft 516 kts 109°
2026-05-04 07:29 -34.14936 135.39509 37162 ft 516 kts 109°
2026-05-04 07:30 -34.17239 135.47729 37154 ft 516 kts 113°
2026-05-04 07:30 -34.19595 135.55867 37152 ft 517 kts 112°
2026-05-04 07:31 -34.21874 135.64108 37148 ft 518 kts 111°
2026-05-04 07:33 -34.30489 135.97392 37147 ft 519 kts 109°
2026-05-04 07:33 -34.32646 136.05722 37138 ft 519 kts 109°
2026-05-04 07:34 -34.34782 136.13845 37134 ft 519 kts 109°
2026-05-04 07:34 -34.36980 136.22197 37133 ft 519 kts 109°
2026-05-04 07:35 -34.39165 136.30540 37129 ft 519 kts 109°
2026-05-04 07:35 -34.41342 136.38888 37133 ft 520 kts 109°
2026-05-04 07:36 -34.43518 136.47264 37127 ft 521 kts 109°
2026-05-04 07:38 -34.52158 136.80766 37122 ft 522 kts 109°
2026-05-04 07:38 -34.54312 136.89180 37123 ft 522 kts 109°
2026-05-04 07:39 -34.56457 136.97602 37124 ft 522 kts 109°
2026-05-04 07:39 -34.58574 137.05939 37120 ft 523 kts 109°
2026-05-04 07:40 -34.60713 137.14387 37123 ft 523 kts 109°
2026-05-04 07:40 -34.62852 137.22855 37105 ft 523 kts 109°
2026-05-04 07:41 -34.64970 137.31273 37104 ft 523 kts 109°
2026-05-04 07:41 -34.67094 137.39738 37115 ft 524 kts 108°
2026-05-04 07:42 -34.69214 137.48217 37109 ft 525 kts 108°
2026-05-04 07:42 -34.71333 137.56721 37110 ft 526 kts 108°
2026-05-04 07:43 -34.73448 137.65237 37099 ft 526 kts 108°
2026-05-04 07:43 -34.75560 137.73770 37099 ft 527 kts 108°
2026-05-04 07:44 -34.77651 137.82243 37100 ft 527 kts 108°
2026-05-04 07:44 -34.79757 137.90811 37098 ft 528 kts 108°
2026-05-04 07:45 -34.81854 137.99369 37098 ft 528 kts 108°
2026-05-04 07:45 -34.83948 138.07944 37097 ft 529 kts 108°
2026-05-04 07:46 -34.86040 138.16536 37093 ft 529 kts 108°
2026-05-04 07:46 -34.88126 138.25138 37092 ft 529 kts 108°
2026-05-04 07:47 -34.90206 138.33740 37081 ft 530 kts 108°
2026-05-04 07:49 -34.99309 138.68001 37082 ft 532 kts 114°
2026-05-04 07:49 -35.01986 138.76438 37089 ft 533 kts 113°
2026-05-04 07:50 -35.04591 138.84920 37089 ft 534 kts 112°
2026-05-04 07:50 -35.07161 138.93430 37086 ft 535 kts 112°
2026-05-04 07:51 -35.09711 139.01913 37084 ft 535 kts 112°
2026-05-04 07:51 -35.12278 139.10471 37083 ft 536 kts 112°
2026-05-04 07:52 -35.14842 139.19035 37080 ft 537 kts 112°
2026-05-04 07:52 -35.17387 139.27560 37075 ft 537 kts 112°
2026-05-04 07:54 -35.28069 139.61672 37072 ft 536 kts 118°
2026-05-04 07:55 -35.31294 139.69915 37072 ft 536 kts 118°
2026-05-04 07:55 -35.34432 139.78141 37072 ft 537 kts 117°
2026-05-04 07:56 -35.37538 139.86493 37067 ft 539 kts 117°
2026-05-04 07:56 -35.40615 139.94850 37063 ft 539 kts 117°
2026-05-04 07:57 -35.43695 140.03237 37061 ft 540 kts 117°
2026-05-04 07:57 -35.46783 140.11656 37059 ft 540 kts 117°
2026-05-04 07:58 -35.49862 140.20071 37079 ft 540 kts 117°
2026-05-04 07:58 -35.52940 140.28506 37060 ft 542 kts 117°
2026-05-04 07:59 -35.56022 140.36972 37054 ft 543 kts 117°
2026-05-04 07:59 -35.59077 140.45389 37060 ft 543 kts 117°
2026-05-04 08:00 -35.62156 140.53894 37047 ft 545 kts 117°
2026-05-04 08:02 -35.74464 140.88126 37052 ft 548 kts 116°
2026-05-04 08:02 -35.77534 140.96724 37039 ft 549 kts 116°
2026-05-04 08:03 -35.80605 141.05346 37037 ft 550 kts 116°
2026-05-04 08:03 -35.83652 141.13928 37036 ft 550 kts 116°
2026-05-04 08:04 -35.86720 141.22589 37029 ft 551 kts 116°
2026-05-04 08:04 -35.89781 141.31259 37023 ft 552 kts 116°
2026-05-04 08:05 -35.92343 141.38534 37024 ft 552 kts 116°
2026-05-04 08:05 -35.95384 141.47186 37020 ft 553 kts 116°
2026-05-04 08:06 -35.98438 141.55904 37020 ft 554 kts 116°
2026-05-04 08:06 -36.01333 141.64193 37017 ft 554 kts 116°
2026-05-04 08:08 -36.13483 141.99219 37004 ft 555 kts 115°
2026-05-04 08:11 -36.27071 142.38875 36986 ft 558 kts 115°
2026-05-04 08:11 -36.31592 142.52185 36985 ft 558 kts 115°
2026-05-04 08:12 -36.34597 142.61064 36984 ft 559 kts 115°
2026-05-04 08:12 -36.37601 142.69967 36983 ft 559 kts 115°
2026-05-04 08:13 -36.40599 142.78881 36975 ft 559 kts 114°
2026-05-04 08:13 -36.43573 142.87749 36969 ft 559 kts 114°
2026-05-04 08:14 -36.46551 142.96666 36900 ft 552 kts 114°
2026-05-04 08:14 -36.48000 143.01023 36876 ft 537 kts 114°
2026-05-04 08:16 -36.57728 143.30376 32026 ft 546 kts 112°
2026-05-04 08:16 -36.59170 143.34755 31246 ft 547 kts 112°
2026-05-04 08:16 -36.60612 143.39139 30420 ft 548 kts 112°
2026-05-04 08:17 -36.62034 143.43472 29602 ft 547 kts 112°
2026-05-04 08:17 -36.63463 143.47829 29019 ft 540 kts 112°
2026-05-04 08:17 -36.64871 143.52130 28464 ft 534 kts 112°
2026-05-04 08:17 -36.66264 143.56389 27874 ft 528 kts 112°
2026-05-04 08:19 -36.75557 143.84972 24069 ft 489 kts 112°
2026-05-04 08:19 -36.76813 143.88856 23537 ft 484 kts 112°
2026-05-04 08:20 -36.78079 143.92779 22938 ft 478 kts 112°
2026-05-04 08:20 -36.79295 143.96550 22432 ft 471 kts 112°
2026-05-04 08:20 -36.80508 144.00317 21919 ft 465 kts 112°
2026-05-04 08:20 -36.81703 144.04033 21403 ft 459 kts 112°
2026-05-04 08:21 -36.82886 144.07716 20891 ft 454 kts 112°
2026-05-04 08:21 -36.84052 144.11349 20365 ft 449 kts 112°
2026-05-04 08:21 -36.85209 144.14961 19859 ft 445 kts 112°
2026-05-04 08:21 -36.86349 144.18525 19338 ft 441 kts 112°
2026-05-04 08:22 -36.87484 144.22077 18847 ft 437 kts 112°
2026-05-04 08:22 -36.88606 144.25590 18331 ft 434 kts 112°
2026-05-04 08:24 -36.98858 144.47310 14778 ft 404 kts 133°
2026-05-04 08:24 -37.00678 144.49930 14279 ft 401 kts 133°
2026-05-04 08:24 -37.02509 144.52559 13791 ft 399 kts 133°
2026-05-04 08:24 -37.04332 144.55176 13241 ft 396 kts 133°
2026-05-04 08:25 -37.06134 144.57764 12763 ft 393 kts 133°
2026-05-04 08:25 -37.07924 144.60334 12272 ft 391 kts 133°
2026-05-04 08:25 -37.09707 144.62898 11785 ft 389 kts 133°
2026-05-04 08:25 -37.11478 144.65444 11296 ft 387 kts 133°
2026-05-04 08:26 -37.13239 144.67978 10805 ft 384 kts 133°
2026-05-04 08:27 -37.27142 144.75923 9899 ft 301 kts 173°
2026-05-04 08:28 -37.29209 144.76460 9742 ft 305 kts 173°
2026-05-04 08:28 -37.31288 144.77011 9398 ft 305 kts 173°
2026-05-04 08:28 -37.33356 144.77565 8995 ft 302 kts 173°
2026-05-04 08:28 -37.35417 144.78033 8767 ft 300 kts 177°
2026-05-04 08:29 -37.37485 144.78368 8547 ft 299 kts 178°
2026-05-04 08:29 -37.39547 144.78696 8333 ft 299 kts 178°
2026-05-04 08:29 -37.41609 144.79039 8114 ft 299 kts 177°
2026-05-04 08:31 -37.54975 144.75696 6664 ft 278 kts 207°
2026-05-04 08:33 -37.68371 144.73150 5257 ft 281 kts 189°
2026-05-04 08:33 -37.70331 144.73012 5056 ft 281 kts 189°
2026-05-04 08:35 -37.82779 144.74589 3742 ft 267 kts 127°
2026-05-04 08:35 -37.83705 144.76569 3595 ft 257 kts 116°
2026-05-04 08:35 -37.84307 144.78640 3375 ft 245 kts 92°
2026-05-04 08:35 -37.84245 144.80706 3237 ft 227 kts 75°
2026-05-04 08:37 -37.79373 144.86091 2500 ft 164 kts 343°
2026-05-04 08:37 -37.78237 144.85905 2308 ft 163 kts 348°
2026-05-04 08:37 -37.77157 144.85713 2075 ft 149 kts 345°
2026-05-04 08:38 -37.76190 144.85522 1902 ft 133 kts 346°
2026-05-04 08:38 -37.75312 144.85360 1725 ft 122 kts 345°
2026-05-04 08:38 -37.74500 144.85207 1564 ft 122 kts 345°
2026-05-04 08:40 -37.68489 144.84081 391 ft 126 kts 353°
2026-05-04 08:40 -37.67675 144.83930 369 ft 103 kts 352°
2026-05-04 08:40 -37.67097 144.83823 389 ft 65 kts 351°
2026-05-04 08:41 -37.66727 144.83754 400 ft 47 kts 352°
2026-05-04 08:41 -37.66518 144.83828 402 ft 23 kts 71°
2026-05-04 08:41 -37.66513 144.83901 405 ft 0 kts 103°
2026-05-04 08:43 -37.66513 144.83902 405 ft 1 kts 103°
2026-05-04 08:43 -37.66515 144.83911 405 ft 0 kts 103°